time, Switch, Flow(0), Analog(2)
yyyy/mm/dd HH:MM:SS.fff, True=FILTERED|False=TOTAL, L/min, V
2023/07/01 21:00:07.158, True, 1.011, 0.128405
2023/07/01 21:00:07.662, True, 1.326, 0.130999
2023/07/01 21:00:08.166, True, 0.995, 0.130617
2023/07/01 21:00:08.662, True, 0.674, 0.130007
2023/07/01 21:00:09.166, True, 0.994, 0.130999
2023/07/01 21:00:09.663, True, 1.011, 0.128405
2023/07/01 21:00:10.166, True, 0.995, 0.128710
2023/07/01 21:00:10.671, True, 0.995, 0.128099
2023/07/01 21:00:11.174, True, 0.993, 0.130922
2023/07/01 21:00:11.670, True, 1.012, 0.129168
2023/07/01 21:00:12.175, True, 0.996, 0.128557
2023/07/01 21:00:12.670, True, 1.010, 0.129854
2023/07/01 21:00:13.175, True, 1.326, 0.129702
2023/07/01 21:00:13.678, True, 0.996, 0.127565
2023/07/01 21:00:14.182, True, 0.995, 0.129625
2023/07/01 21:00:14.679, True, 1.011, 0.128939
2023/07/01 21:00:15.182, True, 0.993, 0.127718
2023/07/01 21:00:15.687, True, 0.996, 0.129549
2023/07/01 21:00:16.183, True, 0.674, 0.130465
2023/07/01 21:00:16.687, True, 0.995, 0.129625
2023/07/01 21:00:17.191, True, 0.993, 0.128939
2023/07/01 21:00:17.686, True, 1.011, 0.130083
2023/07/01 21:00:18.191, True, 1.327, 0.127871
2023/07/01 21:00:18.695, True, 0.994, 0.126726
2023/07/01 21:00:19.191, True, 1.011, 0.130388
2023/07/01 21:00:19.695, True, 0.995, 0.129244
2023/07/01 21:00:20.199, True, 0.995, 0.127489
2023/07/01 21:00:20.695, True, 1.011, 0.127947
2023/07/01 21:00:21.199, True, 0.995, 0.128481
2023/07/01 21:00:21.703, True, 0.995, 0.128099
2023/07/01 21:00:22.199, True, 1.011, 0.128557
2023/07/01 21:00:22.703, True, 0.995, 0.129320
2023/07/01 21:00:23.199, True, 1.348, 0.130770
2023/07/01 21:00:23.703, True, 0.995, 0.130083
2023/07/01 21:00:24.207, True, 0.994, 0.131228
2023/07/01 21:00:24.703, True, 1.011, 0.127413
2023/07/01 21:00:25.206, True, 0.995, 0.130770
2023/07/01 21:00:25.711, True, 0.995, 0.129549
2023/07/01 21:00:26.207, True, 0.674, 0.129931
2023/07/01 21:00:26.711, True, 0.994, 0.128099
2023/07/01 21:00:27.215, True, 1.326, 0.127108
2023/07/01 21:00:27.711, True, 1.011, 0.128481
2023/07/01 21:00:28.215, True, 0.995, 0.127565
2023/07/01 21:00:28.719, True, 0.995, 0.127565
2023/07/01 21:00:29.215, True, 1.011, 0.129168
2023/07/01 21:00:29.719, True, 0.995, 0.128023
2023/07/01 21:00:30.223, True, 0.995, 0.130007
2023/07/01 21:00:30.719, True, 1.012, 0.130617
2023/07/01 21:00:31.223, True, 0.994, 0.129397
2023/07/01 21:00:31.727, True, 1.328, 0.130922
2023/07/01 21:00:32.223, True, 1.010, 0.130465
2023/07/01 21:00:32.727, True, 0.995, 0.129625
2023/07/01 21:00:33.231, True, 0.663, 0.128939
2023/07/01 21:00:33.727, True, 1.350, 0.129854
2023/07/01 21:00:34.231, True, 0.995, 0.128786
2023/07/01 21:00:34.735, True, 0.993, 0.129549
2023/07/01 21:00:35.231, True, 1.011, 0.129091
2023/07/01 21:00:35.735, True, 0.995, 0.130694
2023/07/01 21:00:36.239, True, 0.995, 0.129015
2023/07/01 21:00:36.735, True, 1.011, 0.129549
2023/07/01 21:00:37.239, True, 0.995, 0.127337
2023/07/01 21:00:37.735, True, 1.011, 0.129473
2023/07/01 21:00:38.239, True, 0.995, 0.128405
2023/07/01 21:00:38.743, True, 0.995, 0.128786
2023/07/01 21:00:39.239, True, 1.011, 0.127794
2023/07/01 21:00:39.742, True, 0.995, 0.129473
2023/07/01 21:00:40.247, True, 0.995, 0.128557
2023/07/01 21:00:40.743, True, 1.011, 0.126955
2023/07/01 21:00:41.246, True, 0.995, 0.131533
2023/07/01 21:00:41.751, True, 0.994, 0.129320
2023/07/01 21:00:42.247, True, 1.011, 0.129015
2023/07/01 21:00:42.751, True, 0.995, 0.129244
2023/07/01 21:00:43.255, True, 0.995, 0.130388
2023/07/01 21:00:43.750, True, 0.674, 0.129244
2023/07/01 21:00:44.254, True, 0.995, 0.129473
2023/07/01 21:00:44.759, True, 0.995, 0.129854
2023/07/01 21:00:45.255, True, 1.011, 0.128557
2023/07/01 21:00:45.759, True, 0.995, 0.130694
2023/07/01 21:00:46.263, True, 0.995, 0.129549
2023/07/01 21:00:46.759, True, 1.011, 0.128939
2023/07/01 21:00:47.263, True, 0.995, 0.128481
2023/07/01 21:00:47.766, True, 0.994, 0.129778
2023/07/01 21:00:48.263, True, 1.011, 0.129397
2023/07/01 21:00:48.766, True, 0.995, 0.129015
2023/07/01 21:00:49.271, True, 0.995, 0.130541
2023/07/01 21:00:49.767, True, 1.011, 0.127337
2023/07/01 21:00:50.271, True, 0.995, 0.128710
2023/07/01 21:00:50.775, True, 0.994, 0.128786
2023/07/01 21:00:51.271, True, 1.011, 0.128862
2023/07/01 21:00:51.775, True, 0.995, 0.127489
2023/07/01 21:00:52.279, True, 0.995, 0.131304
2023/07/01 21:00:52.775, True, 1.011, 0.129091
2023/07/01 21:00:53.278, True, 0.663, 0.130083
2023/07/01 21:00:53.775, True, 1.011, 0.128939
2023/07/01 21:00:54.279, True, 0.996, 0.130007
2023/07/01 21:00:54.783, True, 0.994, 0.130007
2023/07/01 21:00:55.279, True, 1.011, 0.130083
2023/07/01 21:00:55.783, True, 0.995, 0.128557
2023/07/01 21:00:56.287, True, 0.994, 0.131380
2023/07/01 21:00:56.783, True, 1.011, 0.129091
2023/07/01 21:00:57.287, True, 0.995, 0.130999
2023/07/01 21:00:57.791, True, 0.995, 0.130617
2023/07/01 21:00:58.287, True, 1.011, 0.130694
2023/07/01 21:00:58.791, True, 0.995, 0.130694
2023/07/01 21:00:59.295, True, 0.995, 0.132448
2023/07/01 21:00:59.791, True, 0.674, 0.130846
2023/07/01 21:01:00.295, True, 0.995, 0.129473
2023/07/01 21:01:00.799, True, 1.326, 0.131838
2023/07/01 21:01:01.295, True, 1.011, 0.129931
2023/07/01 21:01:01.798, True, 0.995, 0.129854
2023/07/01 21:01:02.303, True, 0.995, 0.129854
2023/07/01 21:01:02.799, True, 1.011, 0.132372
2023/07/01 21:01:03.302, True, 0.995, 0.131762
2023/07/01 21:01:03.806, True, 0.995, 0.130617
2023/07/01 21:01:04.303, True, 1.011, 0.130312
2023/07/01 21:01:04.807, True, 0.995, 0.131228
2023/07/01 21:01:05.303, True, 1.011, 0.131685
2023/07/01 21:01:05.807, True, 0.995, 0.131151
2023/07/01 21:01:06.311, True, 0.995, 0.131228
2023/07/01 21:01:06.807, True, 1.011, 0.133211
2023/07/01 21:01:07.311, True, 0.663, 0.129168
2023/07/01 21:01:07.815, True, 1.326, 0.131991
2023/07/01 21:01:08.311, True, 1.011, 0.130846
2023/07/01 21:01:08.815, True, 0.663, 0.130999
2023/07/01 21:01:09.319, True, 1.326, 0.133974
2023/07/01 21:01:09.815, True, 1.011, 0.130922
2023/07/01 21:01:10.319, True, 0.995, 0.132753
2023/07/01 21:01:10.822, True, 0.995, 0.131762
2023/07/01 21:01:11.319, True, 1.011, 0.131075
2023/07/01 21:01:11.823, True, 0.995, 0.133135
2023/07/01 21:01:12.327, True, 0.995, 0.129702
2023/07/01 21:01:12.823, True, 1.011, 0.134661
2023/07/01 21:01:13.327, True, 0.995, 0.134127
2023/07/01 21:01:13.823, True, 1.011, 0.133440
2023/07/01 21:01:14.327, True, 0.995, 0.133364
2023/07/01 21:01:14.831, True, 0.995, 0.133059
2023/07/01 21:01:15.327, True, 1.011, 0.132372
2023/07/01 21:01:15.831, True, 1.326, 0.133440
2023/07/01 21:01:16.335, True, 0.995, 0.133898
2023/07/01 21:01:16.831, True, 1.011, 0.132601
2023/07/01 21:01:17.335, True, 0.996, 0.131685
2023/07/01 21:01:17.838, True, 0.994, 0.131838
2023/07/01 21:01:18.335, True, 1.011, 0.132448
2023/07/01 21:01:18.839, True, 0.995, 0.133745
2023/07/01 21:01:19.343, True, 0.995, 0.134051
2023/07/01 21:01:19.839, True, 1.011, 0.133364
2023/07/01 21:01:20.343, True, 0.995, 0.132372
2023/07/01 21:01:20.847, True, 0.995, 0.134051
2023/07/01 21:01:21.343, True, 1.011, 0.132143
2023/07/01 21:01:21.847, True, 1.327, 0.132143
2023/07/01 21:01:22.351, True, 0.663, 0.133669
2023/07/01 21:01:22.847, True, 1.011, 0.132677
2023/07/01 21:01:23.351, True, 0.995, 0.133669
2023/07/01 21:01:23.855, True, 0.995, 0.134661
2023/07/01 21:01:24.351, True, 1.011, 0.134966
2023/07/01 21:01:24.855, True, 0.995, 0.131991
2023/07/01 21:01:25.351, True, 1.011, 0.133898
2023/07/01 21:01:25.855, True, 0.995, 0.134127
2023/07/01 21:01:26.359, True, 0.995, 0.134661
2023/07/01 21:01:26.855, True, 1.011, 0.135500
2023/07/01 21:01:27.359, True, 1.326, 0.131380
2023/07/01 21:01:27.863, True, 0.995, 0.135271
2023/07/01 21:01:28.359, True, 1.011, 0.133974
2023/07/01 21:01:28.863, True, 0.995, 0.133440
2023/07/01 21:01:29.367, True, 0.995, 0.135195
2023/07/01 21:01:29.863, True, 1.011, 0.137102
2023/07/01 21:01:30.367, True, 0.995, 0.135348
2023/07/01 21:01:30.871, True, 0.995, 0.133974
2023/07/01 21:01:31.367, True, 1.012, 0.135576
2023/07/01 21:01:31.871, True, 0.994, 0.136187
2023/07/01 21:01:32.375, True, 0.995, 0.135271
2023/07/01 21:01:32.871, True, 1.011, 0.133364
2023/07/01 21:01:33.375, True, 1.328, 0.135195
2023/07/01 21:01:33.871, True, 1.010, 0.136187
2023/07/01 21:01:34.374, True, 0.995, 0.137026
2023/07/01 21:01:34.879, True, 0.663, 0.136416
2023/07/01 21:01:35.374, True, 1.348, 0.134813
2023/07/01 21:01:35.878, True, 0.995, 0.133440
2023/07/01 21:01:36.383, True, 0.995, 0.134813
2023/07/01 21:01:36.879, True, 1.011, 0.137026
2023/07/01 21:01:37.382, True, 0.995, 0.136645
2023/07/01 21:01:37.887, True, 0.995, 0.134661
2023/07/01 21:01:38.383, True, 1.012, 0.135195
2023/07/01 21:01:38.886, True, 0.994, 0.136873
2023/07/01 21:01:39.390, True, 0.995, 0.133745
2023/07/01 21:01:39.887, True, 1.011, 0.133211
2023/07/01 21:01:40.391, True, 0.995, 0.135348
2023/07/01 21:01:40.894, True, 1.326, 0.135348
2023/07/01 21:01:41.390, True, 1.011, 0.135500
2023/07/01 21:01:41.895, True, 0.995, 0.135500
2023/07/01 21:01:42.399, True, 0.996, 0.135882
2023/07/01 21:01:42.894, True, 1.009, 0.136339
2023/07/01 21:01:43.398, True, 0.995, 0.137331
2023/07/01 21:01:43.902, True, 0.664, 0.136873
2023/07/01 21:01:44.398, True, 1.009, 0.135042
2023/07/01 21:01:44.903, True, 0.995, 0.136645
2023/07/01 21:01:45.407, True, 0.995, 0.137560
2023/07/01 21:01:45.903, True, 1.013, 0.136110
2023/07/01 21:01:46.407, True, 0.994, 0.134890
2023/07/01 21:01:46.911, True, 0.994, 0.136568
2023/07/01 21:01:47.407, True, 1.011, 0.136187
2023/07/01 21:01:47.911, True, 0.995, 0.135882
2023/07/01 21:01:48.415, True, 0.994, 0.135576
2023/07/01 21:01:48.911, True, 1.011, 0.136721
2023/07/01 21:01:49.415, True, 0.996, 0.134890
2023/07/01 21:01:49.919, True, 0.994, 0.137713
2023/07/01 21:01:50.415, True, 1.011, 0.135805
2023/07/01 21:01:50.919, True, 0.996, 0.137560
2023/07/01 21:01:51.423, True, 0.995, 0.135271
2023/07/01 21:01:51.919, True, 1.009, 0.135271
2023/07/01 21:01:52.423, True, 0.995, 0.134661
2023/07/01 21:01:52.927, True, 0.995, 0.136263
2023/07/01 21:01:53.423, True, 1.011, 0.138094
2023/07/01 21:01:53.927, True, 0.994, 0.137026
2023/07/01 21:01:54.431, True, 0.995, 0.136568
2023/07/01 21:01:54.927, True, 1.347, 0.135653
2023/07/01 21:01:55.431, True, 0.995, 0.137407
2023/07/01 21:01:55.935, True, 0.995, 0.138323
2023/07/01 21:01:56.439, True, 0.995, 0.136492
2023/07/01 21:01:56.935, True, 1.013, 0.136263
2023/07/01 21:01:57.439, True, 0.993, 0.139239
2023/07/01 21:01:57.943, True, 0.995, 0.137484
2023/07/01 21:01:58.439, True, 1.011, 0.138781
2023/07/01 21:01:58.942, True, 0.995, 0.140002
2023/07/01 21:01:59.439, True, 1.011, 0.136645
2023/07/01 21:01:59.943, True, 0.995, 0.136873
2023/07/01 21:02:00.447, True, 0.995, 0.136492
2023/07/01 21:02:00.943, True, 1.012, 0.135424
2023/07/01 21:02:01.447, True, 0.994, 0.134966
2023/07/01 21:02:01.951, True, 0.995, 0.138094
2023/07/01 21:02:02.447, True, 1.011, 0.137713
2023/07/01 21:02:02.951, True, 0.995, 0.136950
2023/07/01 21:02:03.455, True, 0.995, 0.136339
2023/07/01 21:02:03.951, True, 1.011, 0.137179
2023/07/01 21:02:04.455, True, 0.663, 0.136492
2023/07/01 21:02:04.959, True, 0.995, 0.137560
2023/07/01 21:02:05.455, True, 1.011, 0.136034
2023/07/01 21:02:05.959, True, 0.995, 0.137331
2023/07/01 21:02:06.463, True, 0.995, 0.135805
2023/07/01 21:02:06.958, True, 1.011, 0.135576
2023/07/01 21:02:07.463, True, 0.995, 0.134813
2023/07/01 21:02:07.966, True, 0.995, 0.134585
2023/07/01 21:02:08.463, True, 1.011, 0.136110
2023/07/01 21:02:08.966, True, 0.994, 0.138018
2023/07/01 21:02:09.471, True, 0.995, 0.138323
2023/07/01 21:02:09.966, True, 1.011, 0.138094
2023/07/01 21:02:10.471, True, 0.995, 0.138018
2023/07/01 21:02:10.966, True, 1.011, 0.135271
2023/07/01 21:02:11.471, True, 0.995, 0.137179
2023/07/01 21:02:11.975, True, 0.995, 0.134661
2023/07/01 21:02:12.471, True, 1.011, 0.134890
2023/07/01 21:02:12.975, True, 0.995, 0.135119
2023/07/01 21:02:13.479, True, 0.995, 0.135653
2023/07/01 21:02:13.975, True, 1.011, 0.136645
2023/07/01 21:02:14.479, True, 0.995, 0.136110
2023/07/01 21:02:14.983, True, 0.995, 0.135882
2023/07/01 21:02:15.478, True, 1.012, 0.136950
2023/07/01 21:02:15.983, True, 0.994, 0.135882
2023/07/01 21:02:16.487, True, 0.995, 0.135729
2023/07/01 21:02:16.983, True, 1.010, 0.135958
2023/07/01 21:02:17.487, True, 0.995, 0.136339
2023/07/01 21:02:17.991, True, 1.326, 0.139620
2023/07/01 21:02:18.487, True, 0.674, 0.136568
2023/07/01 21:02:18.990, True, 0.995, 0.138018
2023/07/01 21:02:19.495, True, 1.327, 0.135500
2023/07/01 21:02:19.991, True, 1.011, 0.138018
2023/07/01 21:02:20.495, True, 0.994, 0.137407
2023/07/01 21:02:20.990, True, 1.011, 0.137865
2023/07/01 21:02:21.495, True, 0.995, 0.137713
2023/07/01 21:02:21.998, True, 0.994, 0.138628
2023/07/01 21:02:22.494, True, 1.011, 0.138094
2023/07/01 21:02:22.999, True, 0.995, 0.137331
2023/07/01 21:02:23.502, True, 0.995, 0.136492
2023/07/01 21:02:24.007, True, 0.995, 0.138323
2023/07/01 21:02:24.503, True, 1.011, 0.136873
2023/07/01 21:02:25.006, True, 0.995, 0.137331
2023/07/01 21:02:25.511, True, 0.995, 0.137636
2023/07/01 21:02:26.007, True, 1.012, 0.136950
2023/07/01 21:02:26.510, True, 0.994, 0.137560
2023/07/01 21:02:27.006, True, 1.011, 0.136873
2023/07/01 21:02:27.511, True, 1.326, 0.136187
2023/07/01 21:02:28.014, True, 0.995, 0.136568
2023/07/01 21:02:28.511, True, 1.011, 0.137026
2023/07/01 21:02:29.014, True, 0.996, 0.135805
2023/07/01 21:02:29.518, True, 0.994, 0.137102
2023/07/01 21:02:30.014, True, 1.011, 0.137102
2023/07/01 21:02:30.519, True, 0.995, 0.135805
2023/07/01 21:02:31.023, True, 0.996, 0.138399
2023/07/01 21:02:31.519, True, 1.010, 0.136645
2023/07/01 21:02:32.023, True, 0.997, 0.135195
2023/07/01 21:02:32.526, True, 0.993, 0.137865
2023/07/01 21:02:33.023, True, 1.349, 0.137102
2023/07/01 21:02:33.527, True, 0.994, 0.135958
2023/07/01 21:02:34.031, True, 0.996, 0.136645
2023/07/01 21:02:34.527, True, 1.010, 0.135882
2023/07/01 21:02:35.031, True, 0.996, 0.136110
2023/07/01 21:02:35.535, True, 0.994, 0.137713
2023/07/01 21:02:36.031, True, 1.011, 0.135271
2023/07/01 21:02:36.535, True, 0.994, 0.137331
2023/07/01 21:02:37.039, True, 0.995, 0.136110
2023/07/01 21:02:37.535, True, 1.011, 0.136950
2023/07/01 21:02:38.039, True, 0.996, 0.137331
2023/07/01 21:02:38.543, True, 0.994, 0.137179
2023/07/01 21:02:39.039, True, 1.011, 0.139086
2023/07/01 21:02:39.543, True, 0.995, 0.136263
2023/07/01 21:02:40.047, True, 0.995, 0.136339
2023/07/01 21:02:40.551, True, 0.995, 0.138933
2023/07/01 21:02:41.047, True, 1.011, 0.136492
2023/07/01 21:02:41.551, True, 1.326, 0.137102
2023/07/01 21:02:42.055, True, 0.995, 0.138552
2023/07/01 21:02:42.551, True, 1.011, 0.136645
2023/07/01 21:02:43.055, True, 0.995, 0.136950
2023/07/01 21:02:43.551, True, 1.011, 0.135729
2023/07/01 21:02:44.055, True, 0.995, 0.137713
2023/07/01 21:02:44.559, True, 0.663, 0.138170
2023/07/01 21:02:45.055, True, 1.011, 0.136797
2023/07/01 21:02:45.559, True, 0.995, 0.136110
2023/07/01 21:02:46.062, True, 1.326, 0.137636
2023/07/01 21:02:46.559, True, 1.011, 0.135348
2023/07/01 21:02:47.063, True, 0.995, 0.135882
2023/07/01 21:02:47.567, True, 0.995, 0.137026
2023/07/01 21:02:48.063, True, 1.012, 0.135348
2023/07/01 21:02:48.567, True, 0.994, 0.136645
2023/07/01 21:02:49.071, True, 0.995, 0.134279
2023/07/01 21:02:49.566, True, 1.011, 0.136034
2023/07/01 21:02:50.071, True, 0.995, 0.136263
2023/07/01 21:02:50.575, True, 0.995, 0.136187
2023/07/01 21:02:51.079, True, 0.995, 0.136568
2023/07/01 21:02:51.575, True, 1.011, 0.138018
2023/07/01 21:02:52.079, True, 0.995, 0.135729
2023/07/01 21:02:52.575, True, 1.011, 0.136721
2023/07/01 21:02:53.079, True, 0.663, 0.135653
2023/07/01 21:02:53.583, True, 0.995, 0.137179
2023/07/01 21:02:54.079, True, 1.011, 0.134508
2023/07/01 21:02:54.583, True, 1.326, 0.137560
2023/07/01 21:02:55.087, True, 0.995, 0.139544
2023/07/01 21:02:55.583, True, 1.011, 0.136568
2023/07/01 21:02:56.086, True, 0.995, 0.136416
2023/07/01 21:02:56.583, True, 1.011, 0.133364
2023/07/01 21:02:57.087, True, 0.995, 0.135042
2023/07/01 21:02:57.591, True, 0.995, 0.135805
2023/07/01 21:02:58.087, True, 1.011, 0.136110
2023/07/01 21:02:58.590, True, 0.997, 0.135882
2023/07/01 21:02:59.095, True, 0.993, 0.136110
2023/07/01 21:02:59.591, True, 1.011, 0.133898
2023/07/01 21:03:00.095, True, 0.995, 0.144121
2023/07/01 21:03:00.599, True, 0.995, 0.137026
2023/07/01 21:03:01.103, True, 0.995, 0.136721
2023/07/01 21:03:01.599, True, 1.011, 0.136873
2023/07/01 21:03:02.103, True, 0.996, 0.136416
2023/07/01 21:03:02.599, True, 1.009, 0.135653
2023/07/01 21:03:03.103, True, 0.995, 0.138018
2023/07/01 21:03:03.607, True, 0.994, 0.134813
2023/07/01 21:03:04.111, True, 1.327, 0.136721
2023/07/01 21:03:04.607, True, 1.011, 0.136645
2023/07/01 21:03:05.111, True, 0.995, 0.135424
2023/07/01 21:03:05.615, True, 0.995, 0.136873
2023/07/01 21:03:06.111, True, 1.011, 0.135500
2023/07/01 21:03:06.615, True, 0.996, 0.135500
2023/07/01 21:03:07.119, True, 0.995, 0.135653
2023/07/01 21:03:07.615, True, 1.010, 0.136187
2023/07/01 21:03:08.119, True, 0.663, 0.137331
2023/07/01 21:03:08.623, True, 0.995, 0.136034
2023/07/01 21:03:09.118, True, 1.011, 0.135958
2023/07/01 21:03:09.623, True, 0.995, 0.135729
2023/07/01 21:03:10.119, True, 1.011, 0.136492
2023/07/01 21:03:10.623, True, 0.995, 0.135195
2023/07/01 21:03:11.127, True, 1.328, 0.133516
2023/07/01 21:03:11.631, True, 0.993, 0.137026
2023/07/01 21:03:12.127, True, 1.011, 0.137789
2023/07/01 21:03:12.630, True, 0.995, 0.136187
2023/07/01 21:03:13.134, True, 0.995, 0.136339
2023/07/01 21:03:13.631, True, 1.011, 0.136034
2023/07/01 21:03:14.134, True, 0.995, 0.134203
2023/07/01 21:03:14.638, True, 0.995, 0.136721
2023/07/01 21:03:15.135, True, 1.011, 0.136034
2023/07/01 21:03:15.639, True, 0.995, 0.136339
2023/07/01 21:03:16.142, True, 0.994, 0.137026
2023/07/01 21:03:16.638, True, 1.011, 0.135348
2023/07/01 21:03:17.142, True, 0.995, 0.136034
2023/07/01 21:03:17.647, True, 0.994, 0.136034
2023/07/01 21:03:18.143, True, 1.348, 0.135271
2023/07/01 21:03:18.647, True, 0.664, 0.135958
2023/07/01 21:03:19.143, True, 1.011, 0.136568
2023/07/01 21:03:19.646, True, 0.994, 0.136645
2023/07/01 21:03:20.150, True, 0.996, 0.136950
2023/07/01 21:03:20.655, True, 1.325, 0.136339
2023/07/01 21:03:21.151, True, 1.012, 0.136568
2023/07/01 21:03:21.655, True, 0.994, 0.136034
2023/07/01 21:03:22.159, True, 0.996, 0.136263
2023/07/01 21:03:22.655, True, 1.010, 0.136263
2023/07/01 21:03:23.159, True, 0.994, 0.136110
2023/07/01 21:03:23.663, True, 0.997, 0.136492
2023/07/01 21:03:24.167, True, 0.995, 0.135729
2023/07/01 21:03:24.663, True, 1.010, 0.137865
2023/07/01 21:03:25.167, True, 0.994, 0.133593
2023/07/01 21:03:25.671, True, 0.995, 0.135271
2023/07/01 21:03:26.166, True, 1.012, 0.136339
2023/07/01 21:03:26.671, True, 0.993, 0.135119
2023/07/01 21:03:27.174, True, 0.995, 0.135958
2023/07/01 21:03:27.671, True, 1.011, 0.133974
2023/07/01 21:03:28.175, True, 0.995, 0.135805
2023/07/01 21:03:28.679, True, 0.994, 0.135729
2023/07/01 21:03:29.183, True, 0.996, 0.136110
2023/07/01 21:03:29.679, True, 1.010, 0.134890
2023/07/01 21:03:30.183, True, 0.995, 0.135653
2023/07/01 21:03:30.687, True, 0.994, 0.134966
2023/07/01 21:03:31.183, True, 1.011, 0.136721
2023/07/01 21:03:31.687, True, 0.995, 0.134203
2023/07/01 21:03:32.191, True, 0.995, 0.135195
2023/07/01 21:03:32.687, True, 1.011, 0.135882
2023/07/01 21:03:33.191, True, 0.995, 0.135805
2023/07/01 21:03:33.695, True, 0.995, 0.134356
2023/07/01 21:03:34.191, True, 1.011, 0.136797
2023/07/01 21:03:34.695, True, 0.996, 0.135119
2023/07/01 21:03:35.199, True, 0.994, 0.137255
2023/07/01 21:03:35.694, True, 1.010, 0.133745
2023/07/01 21:03:36.199, True, 0.995, 0.134127
2023/07/01 21:03:36.702, True, 0.995, 0.136034
2023/07/01 21:03:37.199, True, 1.010, 0.132219
2023/07/01 21:03:37.703, True, 0.995, 0.134813
2023/07/01 21:03:38.207, True, 0.995, 0.135805
2023/07/01 21:03:38.703, True, 1.011, 0.135195
2023/07/01 21:03:39.207, True, 0.995, 0.137331
2023/07/01 21:03:39.711, True, 0.995, 0.133516
2023/07/01 21:03:40.207, True, 1.011, 0.135729
2023/07/01 21:03:40.711, True, 0.995, 0.135500
2023/07/01 21:03:41.214, True, 0.995, 0.135119
2023/07/01 21:03:41.711, True, 1.011, 0.135500
2023/07/01 21:03:42.215, True, 0.995, 0.134661
2023/07/01 21:03:42.719, True, 0.995, 0.135119
2023/07/01 21:03:43.215, True, 1.013, 0.138018
2023/07/01 21:03:43.718, True, 0.994, 0.136492
2023/07/01 21:03:44.223, True, 0.993, 0.133516
2023/07/01 21:03:44.719, True, 1.011, 0.133745
2023/07/01 21:03:45.223, True, 0.994, 0.136034
2023/07/01 21:03:45.726, True, 0.995, 0.133135
2023/07/01 21:03:46.231, True, 0.664, 0.136568
2023/07/01 21:03:46.727, True, 1.347, 0.135042
2023/07/01 21:03:47.231, True, 0.995, 0.136263
2023/07/01 21:03:47.735, True, 0.995, 0.134890
2023/07/01 21:03:48.231, True, 1.011, 0.134127
2023/07/01 21:03:48.735, True, 0.995, 0.135958
2023/07/01 21:03:49.239, True, 0.995, 0.134432
2023/07/01 21:03:49.735, True, 1.012, 0.134203
2023/07/01 21:03:50.239, True, 0.994, 0.136263
2023/07/01 21:03:50.743, True, 0.995, 0.134585
2023/07/01 21:03:51.239, True, 1.011, 0.135653
2023/07/01 21:03:51.742, True, 0.995, 0.133516
2023/07/01 21:03:52.247, True, 0.995, 0.135500
2023/07/01 21:03:52.743, True, 0.675, 0.134508
2023/07/01 21:03:53.247, True, 1.325, 0.136492
2023/07/01 21:03:53.751, True, 0.995, 0.133516
2023/07/01 21:03:54.247, True, 1.013, 0.135119
2023/07/01 21:03:54.751, True, 0.993, 0.136263
2023/07/01 21:03:55.247, True, 0.674, 0.135576
2023/07/01 21:03:55.751, True, 0.995, 0.137636
2023/07/01 21:03:56.255, True, 0.995, 0.134508
2023/07/01 21:03:56.751, True, 1.348, 0.137026
2023/07/01 21:03:57.255, True, 0.995, 0.133669
2023/07/01 21:03:57.759, True, 0.995, 0.134508
2023/07/01 21:03:58.255, True, 1.010, 0.135348
2023/07/01 21:03:58.759, True, 0.995, 0.133974
2023/07/01 21:03:59.263, True, 0.996, 0.135653
2023/07/01 21:03:59.759, True, 1.011, 0.134890
2023/07/01 21:04:00.263, True, 0.993, 0.134356
2023/07/01 21:04:00.767, True, 0.995, 0.133898
2023/07/01 21:04:01.263, True, 0.674, 0.133593
2023/07/01 21:04:01.767, True, 0.995, 0.136721
2023/07/01 21:04:02.263, True, 1.011, 0.135271
2023/07/01 21:04:02.767, True, 0.995, 0.134585
2023/07/01 21:04:03.271, True, 0.995, 0.134585
2023/07/01 21:04:03.767, True, 1.011, 0.136263
2023/07/01 21:04:04.271, True, 0.995, 0.138323
2023/07/01 21:04:04.775, True, 0.995, 0.133516
2023/07/01 21:04:05.271, True, 1.011, 0.135271
2023/07/01 21:04:05.775, True, 0.995, 0.135042
2023/07/01 21:04:06.279, True, 0.995, 0.134813
2023/07/01 21:04:06.775, True, 0.674, 0.134890
2023/07/01 21:04:07.279, True, 0.995, 0.133059
2023/07/01 21:04:07.783, True, 0.995, 0.133364
2023/07/01 21:04:08.279, True, 1.011, 0.135042
2023/07/01 21:04:08.783, True, 0.995, 0.134737
2023/07/01 21:04:09.287, True, 0.995, 0.133898
2023/07/01 21:04:09.783, True, 1.011, 0.136797
2023/07/01 21:04:10.287, True, 0.995, 0.133516
2023/07/01 21:04:10.790, True, 0.663, 0.134127
2023/07/01 21:04:11.287, True, 1.011, 0.136187
2023/07/01 21:04:11.791, True, 0.995, 0.136568
2023/07/01 21:04:12.295, True, 0.995, 0.133822
2023/07/01 21:04:12.791, True, 1.011, 0.134737
2023/07/01 21:04:13.294, True, 0.995, 0.133135
2023/07/01 21:04:13.799, True, 0.995, 0.133669
2023/07/01 21:04:14.294, True, 1.012, 0.134737
2023/07/01 21:04:14.799, True, 0.995, 0.134279
2023/07/01 21:04:15.303, True, 0.993, 0.133822
2023/07/01 21:04:15.798, True, 1.350, 0.133974
2023/07/01 21:04:16.303, True, 0.994, 0.135805